Temperature
-6 -6 -5 -5 -4 -3 -2 -1 -0 1 2 4 5 7 8 8 9 9 10 10 10 11 11 12 12 12 12 13 13 13 13 13 14 14 14 13 13 13
-7 -6 -6 -5 -4 -3 -2 -1 -0 0 1 2 4 6 7 7 8 8 9 9 10 10 11 11 12 12 12 12 13 13 13 13 13 13 13 13 13 13
-7 -7 -6 -6 -5 -4 -3 -2 -1 -0 1 1 3 4 5 6 7 8 8 9 9 10 10 11 11 12 12 12 12 12 12 12 12 12 12 12 12 12
-7 -7 -7 -6 -6 -5 -4 -2 -2 -1 0 1 2 3 4 5 6 7 7 8 8 9 10 10 11 11 12 12 12 12 12 12 12 12 12 11 11 11
-8 -7 -7 -7 -6 -5 -4 -3 -2 -1 -0 0 1 2 3 4 5 6 7 7 8 8 9 9 10 11 11 12 12 12 12 12 12 12 11 11 11 10
-8 -8 -7 -7 -6 -6 -5 -4 -3 -2 -1 -0 0 1 2 3 4 5 6 6 7 7 8 8 9 10 11 11 11 11 11 11 11 11 11 10 10 10
-8 -8 -7 -7 -7 -6 -5 -4 -3 -2 -1 -1 -0 1 2 2 3 4 5 5 6 7 7 8 8 9 9 9 10 10 11 11 10 10 10 9 9 9
-8 -8 -8 -7 -7 -7 -6 -5 -4 -3 -2 -1 -1 -0 0 1 2 3 4 5 5 6 6 7 7 8 8 8 9 9 9 9 9 9 8 8 8 8
-9 -8 -8 -8 -8 -7 -7 -6 -5 -5 -4 -3 -2 -2 -1 0 1 3 4 4 5 5 6 6 6 7 7 7 7 8 8 8 7 7 7 6 6 6
-9 -9 -8 -8 -8 -8 -7 -7 -6 -6 -5 -5 -4 -3 -2 -1 0 2 3 4 4 5 5 5 5 5 5 5 5 6 6 6 5 5 5 4 4 4
-9 -9 -9 -8 -8 -8 -8 -8 -8 -7 -6 -6 -5 -4 -3 -2 -1 1 2 3 3 4 4 4 3 3 3 3 3 3 3 3 3 3 3 3 3 3
-10 -9 -9 -9 -9 -9 -9 -9 -9 -8 -7 -6 -5 -4 -3 -2 -1 0 1 2 2 2 3 3 3 3 2 2 2 2 2 2 2 2 2 2 2 3
-11 -10 -10 -10 -10 -10 -10 -10 -10 -9 -8 -7 -6 -5 -4 -3 -2 -1 -0 1 1 1 1 2 2 2 1 0 1 1 1 1 1 1 1 2 2 2
-11 -11 -11 -11 -11 -11 -10 -10 -10 -9 -9 -9 -8 -8 -7 -6 -5 -4 -2 -1 -0 0 0 1 1 2 1 -0 -0 -0 0 0 1 1 1 1 2 2
-12 -11 -11 -12 -11 -11 -11 -11 -10 -10 -10 -10 -10 -10 -9 -9 -7 -6 -4 -3 -2 -1 -0 0 1 1 1 1 -0 -1 -0 -0 0 0 1 1 1 2
-12 -12 -13 -13 -12 -12 -12 -11 -11 -12 -11 -11 -11 -11 -10 -9 -8 -7 -6 -4 -3 -2 -2 -1 -1 -0 -0 -0 -0 -0 -0 -0 -0 0 0 1 1 1
-13 -13 -13 -13 -13 -13 -13 -13 -12 -12 -12 -12 -11 -11 -11 -10 -9 -9 -8 -7 -6 -5 -4 -3 -2 -1 -1 -1 -1 -1 -1 -1 -1 -0 -0 -0 0 0
-14 -14 -14 -14 -14 -14 -14 -14 -14 -14 -13 -13 -12 -12 -11 -11 -11 -10 -9 -9 -8 -8 -7 -6 -5 -3 -3 -3 -3 -3 -2 -2 -2 -2 -1 -1 -1 -0
-14 -14 -15 -15 -15 -15 -15 -15 -15 -14 -14 -14 -13 -13 -12 -12 -11 -11 -10 -10 -10 -10 -9 -8 -7 -6 -5 -6 -8 -6 -5 -4 -4 -3 -3 -2 -2 -1
-14 -15 -15 -15 -15 -15 -15 -15 -15 -15 -15 -14 -14 -14 -13 -13 -12 -12 -12 -11 -11 -10 -10 -9 -9 -8 -7 -8 -9 -9 -8 -7 -6 -5 -4 -3 -3 -2
-14 -15 -15 -15 -15 -15 -15 -15 -15 -15 -15 -15 -15 -14 -14 -14 -13 -13 -13 -12 -12 -11 -11 -10 -10 -10 -9 -9 -9 -9 -9 -8 -7 -6 -5 -5 -4 -4
-14 -14 -15 -15 -15 -15 -15 -15 -15 -15 -15 -15 -15 -15 -14 -14 -14 -14 -13 -13 -13 -12 -12 -12 -11 -11 -10 -10 -10 -10 -9 -9 -8 -7 -7 -6 -5 -5
-14 -14 -14 -14 -15 -15 -15 -15 -15 -15 -15 -15 -15 -15 -15 -14 -14 -14 -14 -14 -13 -13 -13 -12 -12 -11 -11 -11 -11 -11 -10 -10 -9 -8 -8 -7 -6 -6
Wind_Speed
12 12 10 10 10 11 11 10 10 10 11 9 7 7 5 4 7 8 8 12 14 16 16 16 17 20 23 25 27 29 30 29 29 28 27 26 25 23
11 12 10 10 11 11 11 10 10 11 10 7 7 9 8 7 7 5 8 12 15 17 18 18 18 19 22 24 26 29 30 30 29 29 29 28 26 24
13 12 11 12 11 11 11 10 9 9 11 9 8 9 10 8 6 4 5 6 8 15 18 19 19 20 21 23 26 28 29 30 30 30 30 29 27 26
13 11 11 11 13 11 10 11 10 9 9 10 7 7 9 8 6 5 4 3 4 10 16 18 19 20 21 23 25 27 29 30 30 30 29 29 29 29
12 10 11 12 12 11 13 11 9 9 7 7 7 6 6 6 5 4 3 3 3 5 10 13 16 18 19 21 23 26 28 29 30 29 29 31 31 30
11 9 10 11 12 13 11 11 10 9 7 6 6 5 6 6 5 4 3 3 3 2 4 5 9 13 16 19 22 24 26 27 28 30 32 32 31 30
10 9 10 14 17 14 11 10 10 7 6 4 4 4 4 3 4 3 4 4 3 3 4 4 5 6 7 15 20 25 28 30 31 33 33 32 32 30
9 8 10 11 15 18 18 17 15 10 7 5 3 3 4 3 3 3 4 5 4 4 5 4 5 8 6 9 21 28 32 34 34 33 33 32 31 29
9 8 9 12 13 10 14 18 18 21 17 9 6 6 6 6 5 5 5 5 4 6 8 6 6 9 8 16 26 29 32 33 34 33 32 31 29 27
9 8 9 10 12 12 11 12 13 14 16 12 10 11 11 10 7 5 3 2 4 3 5 7 7 9 10 12 25 29 31 32 31 31 30 29 27 25
11 11 10 8 18 20 14 12 13 13 17 21 21 20 22 23 16 4 1 6 6 3 3 5 8 9 9 9 17 27 29 30 29 29 27 26 25 22
10 13 16 17 21 21 13 12 13 12 13 14 16 19 17 19 24 14 6 3 5 3 3 4 7 6 6 6 8 13 19 25 26 25 24 21 18 15
9 9 11 22 23 23 19 13 17 14 11 12 12 13 13 14 15 15 13 7 5 4 2 3 5 5 6 5 5 8 10 12 16 18 18 17 14 12
8 7 11 22 23 24 19 21 23 18 11 11 12 13 13 13 12 13 14 14 12 9 8 6 5 6 7 6 5 5 7 9 11 10 11 14 14 13
9 17 19 21 20 17 23 24 19 13 12 12 13 13 12 12 11 11 12 12 16 18 18 14 9 8 8 8 7 6 5 5 6 6 6 6 6 6
10 15 20 21 18 19 18 16 13 13 12 11 11 11 10 11 12 12 12 10 11 14 18 22 15 12 10 11 10 8 6 5 5 6 5 5 7 8
10 9 9 10 11 11 11 12 12 12 12 11 11 11 11 12 12 12 11 11 12 12 12 12 17 19 16 12 9 9 9 8 6 5 4 4 3 4
13 9 10 10 11 11 11 11 11 11 11 10 10 10 11 10 10 11 11 11 11 11 11 9 7 8 9 13 15 9 8 7 5 5 3 3 2 2
10 8 7 8 9 9 8 8 8 9 8 9 9 9 9 9 9 10 10 10 10 11 11 10 9 6 8 7 8 12 7 5 4 4 4 3 2 1
5 5 5 5 5 6 7 7 6 6 6 7 7 7 8 8 8 8 9 9 9 9 10 10 10 9 7 6 5 5 11 6 4 4 3 3 2 4
4 4 4 4 4 4 5 5 5 5 5 5 6 6 6 6 7 7 7 12 10 8 9 8 7 9 4 5 6 4 5 9 6 3 2 2 2 3
3 4 3 3 3 3 3 4 4 4 4 4 4 4 5 5 5 6 6 6 6 6 5 4 6 7 6 7 6 4 3 4 5 3 0 2 1 1
3 3 4 4 3 2 2 3 4 3 3 3 3 3 3 3 3 4 4 4 4 5 5 4 4 4 5 4 4 3 3 3 2 3 3 3 4 7
Wind_Direction
311 308 311 307 302 298 290 279 270 272 275 281 288 292 293 272 229 213 210 216 217 223 228 227 222 218 214 210 204 199 196 193 190 189 188 187 185 179
314 312 314 314 308 303 295 286 274 265 266 270 279 292 301 296 264 233 218 219 221 222 225 227 225 221 217 212 204 198 194 189 187 187 187 184 177 167
315 316 317 316 312 309 303 293 283 272 265 269 273 286 291 291 283 264 237 222 224 222 222 225 225 223 219 213 205 197 191 187 184 185 185 178 168 157
316 317 321 320 316 312 310 303 294 284 269 266 269 276 282 281 269 254 232 216 216 222 221 221 222 220 216 212 203 194 187 182 180 179 175 167 158 151
314 317 321 321 320 318 314 308 302 293 279 267 265 266 273 273 268 262 227 206 199 210 214 216 215 213 209 202 194 186 180 175 171 167 159 151 147 145
313 315 320 320 321 320 316 317 313 304 291 276 265 261 265 261 242 232 217 197 179 157 159 165 177 182 183 180 177 170 164 159 154 147 142 140 138 137
314 317 322 331 337 339 339 339 334 324 313 297 287 279 273 264 242 223 210 180 166 162 144 145 138 135 144 144 145 144 140 136 133 132 130 128 126 126
321 326 333 340 350 353 357 3 5 3 358 347 329 322 320 304 286 251 197 184 186 167 139 120 117 116 113 117 128 128 126 124 123 121 120 118 117 117
333 341 351 352 4 3 6 12 14 21 27 22 16 6 349 334 309 269 224 190 168 154 135 114 108 109 104 114 118 118 119 119 120 120 118 117 116 116
349 1 -0 356 13 27 20 18 17 18 23 26 25 17 8 355 327 286 250 157 113 117 127 117 109 100 99 106 114 115 116 116 117 118 118 118 117 117
2 8 9 13 37 39 29 23 21 17 19 26 29 27 22 20 15 360 203 160 141 81 44 107 116 96 77 79 99 108 112 113 115 117 117 117 116 113
11 10 21 38 43 44 33 25 28 19 14 17 22 23 22 21 24 23 7 139 133 97 12 99 125 110 80 44 58 86 102 108 110 112 113 114 116 116
20 15 18 36 41 43 41 34 36 30 17 20 22 23 22 23 23 23 23 36 84 79 29 90 113 95 104 99 53 57 80 94 99 101 103 104 108 118
20 16 28 38 38 39 40 37 37 34 26 26 28 25 22 19 18 23 30 39 46 55 44 64 99 117 122 113 105 79 73 83 96 97 95 99 95 96
23 34 39 40 37 33 34 36 34 32 29 30 29 25 19 16 17 22 28 37 45 45 45 53 80 99 104 120 123 126 102 80 89 99 97 95 91 91
28 31 34 36 38 34 34 32 29 33 34 29 26 22 20 23 27 27 31 33 47 48 44 50 58 80 96 101 114 118 112 117 105 93 90 84 81 81
34 28 26 27 29 29 30 31 29 27 30 26 25 26 27 28 30 30 35 44 51 53 50 52 61 69 70 80 100 103 107 105 104 97 95 90 75 91
37 31 29 26 26 25 27 28 28 28 26 26 26 27 29 30 31 33 39 44 49 48 44 40 58 76 75 57 46 93 100 101 96 86 88 103 96 79
34 28 26 24 22 20 20 22 25 22 22 26 27 25 28 32 38 39 39 44 49 48 43 37 38 65 92 92 49 45 80 90 91 80 69 77 92 40
19 18 16 14 15 14 13 13 15 18 18 22 24 23 26 31 37 38 41 46 49 51 49 44 43 49 67 89 100 65 57 64 67 68 49 36 3 332
1 3 3 2 3 4 4 2 3 10 15 16 23 23 24 32 36 35 40 54 56 54 54 43 29 39 48 76 88 80 60 65 71 83 67 41 18 3
338 340 338 340 346 350 348 351 352 360 10 15 15 19 21 29 35 38 40 46 49 52 55 42 25 41 55 79 86 81 63 26 19 24 220 207 139 60
305 307 310 314 317 322 332 339 342 343 354 0 5 12 17 22 24 33 35 43 49 45 45 43 40 50 57 66 74 68 46 21 14 15 350 326 276 270
Height
1441 1438 1435 1432 1429 1428 1426 1426 1426 1423 1420 1418 1420 1422 1426 1429 1433 1435 1439 1442 1446 1450 1454 1459 1464 1469 1474 1480 1486 1491 1497 1502 1507 1513 1518 1522 1527 1532
1437 1433 1430 1427 1424 1422 1420 1419 1419 1418 1416 1414 1416 1417 1420 1422 1426 1429 1432 1436 1439 1442 1447 1451 1456 1461 1467 1473 1479 1484 1490 1496 1501 1507 1512 1517 1522 1526
1433 1430 1426 1422 1419 1416 1414 1412 1411 1411 1410 1409 1410 1411 1413 1415 1419 1422 1425 1429 1432 1435 1439 1443 1448 1453 1459 1465 1471 1477 1483 1489 1494 1500 1506 1511 1516 1520
1429 1426 1422 1418 1415 1412 1409 1406 1405 1404 1404 1403 1404 1405 1407 1410 1412 1415 1419 1422 1425 1428 1432 1436 1440 1445 1450 1456 1463 1469 1475 1482 1488 1494 1499 1504 1509 1515
1426 1423 1419 1415 1411 1407 1404 1402 1399 1398 1397 1397 1397 1399 1401 1404 1406 1409 1412 1415 1418 1421 1425 1428 1432 1437 1442 1448 1455 1461 1467 1474 1480 1486 1492 1498 1503 1509
1423 1420 1416 1412 1408 1404 1401 1397 1394 1392 1391 1391 1392 1393 1395 1397 1400 1402 1405 1409 1412 1416 1419 1422 1426 1430 1434 1440 1446 1453 1459 1467 1473 1479 1485 1491 1497 1503
1420 1417 1413 1410 1406 1402 1398 1394 1391 1388 1386 1386 1386 1387 1389 1391 1394 1397 1400 1403 1407 1410 1414 1417 1420 1423 1428 1433 1439 1446 1453 1459 1466 1472 1478 1484 1490 1496
1418 1414 1411 1407 1403 1398 1395 1391 1388 1385 1383 1382 1382 1383 1384 1386 1388 1391 1394 1398 1401 1405 1408 1412 1416 1420 1424 1429 1434 1440 1446 1453 1460 1466 1472 1479 1485 1491
1416 1413 1409 1406 1401 1397 1393 1389 1386 1383 1382 1381 1380 1379 1380 1381 1382 1384 1387 1391 1395 1399 1404 1409 1413 1416 1422 1427 1431 1437 1442 1449 1455 1462 1468 1475 1482 1488
1415 1413 1409 1405 1402 1397 1393 1389 1386 1383 1381 1379 1378 1377 1377 1376 1378 1380 1382 1386 1390 1395 1400 1405 1410 1414 1420 1426 1431 1435 1440 1446 1453 1459 1466 1473 1480 1487
1416 1413 1410 1406 1403 1399 1395 1391 1388 1384 1382 1380 1378 1376 1375 1374 1374 1375 1378 1381 1384 1389 1394 1399 1406 1411 1418 1425 1431 1436 1440 1446 1452 1459 1466 1473 1480 1486
1417 1414 1411 1409 1406 1402 1398 1395 1391 1388 1384 1381 1379 1376 1374 1373 1372 1372 1374 1377 1379 1384 1388 1394 1401 1408 1418 1425 1431 1437 1442 1448 1454 1460 1467 1473 1480 1486
1420 1417 1415 1412 1409 1406 1402 1399 1397 1392 1388 1384 1381 1378 1375 1373 1372 1372 1372 1375 1377 1381 1386 1391 1397 1404 1412 1423 1431 1437 1443 1448 1454 1460 1467 1474 1480 1486
1424 1422 1419 1416 1413 1410 1407 1404 1400 1396 1392 1389 1385 1381 1379 1377 1375 1374 1374 1375 1377 1381 1386 1391 1396 1403 1410 1420 1429 1437 1444 1450 1455 1461 1467 1473 1479 1483
1428 1426 1423 1420 1416 1413 1410 1407 1404 1401 1397 1394 1391 1389 1387 1385 1382 1380 1379 1379 1380 1383 1388 1394 1400 1405 1413 1419 1427 1435 1442 1449 1455 1461 1467 1472 1477 1481
1431 1428 1426 1423 1420 1417 1414 1411 1408 1407 1404 1401 1399 1397 1394 1391 1388 1386 1385 1384 1384 1386 1391 1397 1403 1409 1415 1422 1429 1435 1442 1447 1454 1460 1465 1470 1474 1478
1434 1431 1428 1426 1423 1421 1418 1416 1414 1411 1409 1407 1405 1403 1401 1398 1396 1393 1392 1391 1390 1392 1396 1401 1406 1411 1418 1424 1430 1436 1442 1447 1453 1458 1464 1468 1471 1474
1438 1435 1432 1430 1428 1426 1423 1421 1419 1416 1415 1413 1411 1409 1407 1406 1404 1402 1400 1399 1399 1400 1402 1406 1410 1414 1419 1426 1432 1436 1441 1446 1451 1456 1461 1465 1468 1471
1442 1439 1437 1435 1432 1430 1428 1426 1424 1422 1420 1418 1416 1414 1413 1412 1411 1409 1409 1408 1408 1408 1410 1412 1415 1418 1421 1427 1435 1439 1442 1446 1450 1454 1458 1462 1465 1467
1445 1443 1441 1439 1436 1434 1431 1429 1427 1425 1423 1421 1420 1419 1418 1417 1416 1415 1415 1415 1415 1416 1417 1419 1420 1422 1425 1429 1434 1439 1443 1446 1449 1452 1456 1458 1461 1463
1448 1446 1444 1441 1439 1436 1434 1432 1430 1428 1426 1425 1423 1422 1421 1421 1420 1420 1420 1420 1420 1421 1422 1424 1425 1428 1430 1433 1436 1440 1443 1446 1449 1451 1454 1456 1458 1460
1449 1447 1445 1442 1440 1438 1436 1434 1432 1430 1429 1427 1426 1425 1424 1424 1423 1423 1424 1424 1424 1425 1427 1428 1430 1431 1433 1435 1437 1440 1443 1446 1448 1449 1452 1453 1455 1457
1448 1446 1444 1442 1440 1438 1437 1435 1433 1432 1430 1429 1428 1427 1427 1426 1426 1426 1427 1427 1428 1428 1429 1431 1432 1433 1435 1436 1438 1441 1443 1445 1446 1448 1449 1451 1452 1454